Regional Weather Roundup
Issued by NWS

Home | Current Version | Previous Version | Text Only | Print | Product List | Glossary On
Versions: 1 2 3 4 5 6 7 8 9 10 11 12 13 14 15 16 17 18 19 20 21 22 23 24 25 26 27 28 29 30 31 32 33 34 35 36 37 38 39 40 41 42 43 44 45 46 47 48 49 50
000
ASUS45 KPSR 300210
RWRAZ

ARIZONA HOURLY REGIONAL WEATHER ROUNDUP
NATIONAL WEATHER SERVICE PHOENIX AZ
700 PM MST SAT APR 29 2017

NOTE: FAIR INDICATES FEW OR NO CLOUDS BELOW 12,000 FEET WITH NO
SIGNIFICANT WEATHER AND/OR OBSTRUCTIONS TO VISIBILITY.

AZZ001>003-036-300300-
NORTHWEST ARIZONA

CITY           SKY/WX    TMP DP  RH WIND       PRES   REMARKS
BULLHEAD CITY  CLEAR     81  16   9 N12       29.93S
KINGMAN        CLEAR     66  16  14 N16       30.04S
$$

AZZ004>008-015-016-018-300300-
NORTH CENTRAL ARIZONA

CITY           SKY/WX    TMP DP  RH WIND       PRES   REMARKS
GRAND CANYON   CLOUDY    51  11  20 N10G18    30.09R
WILLIAMS       PTCLDY    50   9  18 NW14G22   30.10R
PRESCOTT       CLEAR     58  11  15 N12       30.04R
FLAGSTAFF      PTCLDY    47   8  20 NE8       30.09R
PAYSON         CLEAR     57  10  15 N10G16    30.06R
PAGE           CLEAR     62  17  17 CALM      30.01R
$$

AZZ009>014-017-300300-
NORTHEAST ARIZONA

CITY           SKY/WX    TMP DP  RH WIND       PRES   REMARKS
WINSLOW        CLEAR     57  11  16 N13G23    30.03R
SAINT JOHNS    PTCLDY    42  33  70 S5        30.04R
WINDOW ROCK    MOCLDY    43  26  51 N7        30.03R
SHOW LOW       MOCLDY    45  18  33 NE10      30.06R
$$

AZZ540-542>544-546-548-300300-
GREATER PHOENIX AREA

CITY           SKY/WX    TMP DP  RH WIND       PRES   REMARKS
PHOENIX        PTCLDY    77  21  12 W16       29.86S
BUCKEYE        CLEAR     77  18  10 NW16      29.88R
GLENDALE       PTCLDY    79  23  12 S14G21    29.87S
LUKE AFB       CLEAR     79  22  11 NW3       29.85R
DEER VALLEY    CLEAR     78  11   8 N10       29.87R
SCOTTSDALE     CLEAR     78  18  10 SW5       29.88S
MESA-GATEWAY   PTCLDY    75  23  14 SW10      29.90S
CHANDLER       CLEAR     77  19  11 SW12      29.88S
$$

AZZ539-553-300300-
SOUTHWEST MARICOPA COUNTY AND PINAL COUNTY

CITY           SKY/WX    TMP DP  RH WIND       PRES   REMARKS
CASA GRANDE    CLEAR     74  21  13 SW8       29.92S
GILA BEND      FAIR      77  16  10 W10       29.90S
$$

AZZ503-504-507>509-300300-
SOUTHEAST ARIZONA

CITY           SKY/WX    TMP DP  RH WIND       PRES   REMARKS
TUCSON         CLEAR     69  15  12 NW9       29.99R
DAVIS-MONTHAN  CLEAR     68  16  13 NW15G22   29.97R
NOGALES        CLEAR     63   7  11 NW13G23   30.01R
SIERRA VISTA   CLEAR     58   7  13 NW15      30.05R
DOUGLAS        CLEAR     60   8  12 NW16      30.00R
SAFFORD        PTCLDY    62  19  19 NW7       29.94R
$$

AZZ532-300300-
SOUTHWEST ARIZONA

CITY           SKY/WX    TMP DP  RH WIND       PRES   REMARKS
YUMA           CLEAR     82  15   8 N13       29.92S
$$

CAZ041-043-047-048-061-525>527-560>570-300300-
SOUTHERN CALIFORNIA

CITY           SKY/WX    TMP DP  RH WIND       PRES   REMARKS
DOWNTOWN L.A.  CLEAR     74  33  22 W8G17     29.97S
L.A. AIRPORT   CLEAR     65  45  48 W17       29.98S
SAN DIEGO      CLEAR     75  38  26 NW7       30.00R
BURBANK        CLEAR     78  19  11 SE7       29.98S
ONTARIO        CLEAR     77  20  12 W13       29.98R
RIVERSIDE      CLEAR     81  13   7 N9G17     29.97R
PALM SPRINGS   CLEAR     84   8   5 NE8       29.97R
EL CENTRO NAS  CLEAR     82  10   6 NW6       29.95S
IMPERIAL       CLEAR     80  28  15 W6        29.93S
BLYTHE         CLEAR     81  13   7 N13       29.93R
NEEDLES        CLEAR     81  15   8 N12       29.95S
$$

NVZ020-UTZ003-300300-
SOUTHERN NEVADA-UTAH

CITY           SKY/WX    TMP DP  RH WIND       PRES   REMARKS
LAS VEGAS      CLEAR     76   9   7 NE12      30.00R
SALT LAKE CITY PTCLDY    52  33  48 W8        30.17S
$$

NMZ009-TXZ055-300300-
NEW MEXICO-WEST TEXAS

CITY           SKY/WX    TMP DP  RH WIND       PRES   REMARKS
ALBUQUERQUE    LGT RAIN  38  35  89 SE10      30.03R WCI  31
EL PASO        PTCLDY    54  28  36 N22       29.94R
$$


........................KEY........................
SKY/WX - SKY CONDITION/WEATHER
TMP    - TEMPERATURE IN FAHRENHEIT
DP     - DEW POINT IN FAHRENHEIT
RH     - RELATIVE HUMIDITY IN PERCENT
WIND   - DIRECTION AND SPEED IN MILES PER HOUR (MPH)
VRB    - VARIABLE WIND DIRECTION
PRES   - MEAN SEA LEVEL PRESSURE IN INCHES OF MERCURY
         F - FALLING PRESSURE   R - RISING PRESSURE
         S - STEADY PRESSURE
VSB    - VISIBILITY IN MILES
HX     - HEAT INDEX IN FAHRENHEIT
WCI    - WIND CHILL INDEX IN FAHRENHEIT
TC     - TEMPERATURE IN CELSIUS WHICH IS ALSO KNOWN AS
         TEMPERATURE IN CENTIGRADE
AFB    - AIR FORCE BASE
         LUKE AFB IS LUKE AIR FORCE BASE
         DAVIS-MONTHAN IS DAVIS-MONTHAN AIR FORCE BASE
NAS    - NAVAL AIR STATION
         EL CENTRO NAS IS EL CENTRO NAVAL AIR STATION
N/A    - NOT AVAILABLE




USA.gov is the U.S. government's official web portal to all federal, state and local government web resources and services.